Location: Shenandoah County Park
(38.9356°N, 78.4524°W)
Time: 16:33:01
(UTC-04:00)

Envisat - Visible Passes

Search period start: 01 October 2022 00:00
Search period end: 11 October 2022 00:00
Orbit: 764 x 765 km, 98.2° (Epoch: 01 October)

Date Brightness Start Highest point End Pass type
(mag) Time Alt. Az. Time Alt. Az. Time Alt. Az.
01 Oct 5.2 04:38:23 10° NE 04:42:25 23° E 04:46:26 10° SSE visible
01 Oct 3.5 06:16:50 10° N 06:21:29 38° WNW 06:26:08 10° SW visible
02 Oct 2.9 05:39:34 10° NNE 05:44:41 86° WNW 05:49:45 10° SSW visible
03 Oct 4.2 05:02:52 10° NNE 05:07:40 41° E 05:12:26 10° SSE visible
03 Oct 4.2 06:42:31 10° NNW 06:46:22 22° WNW 06:50:14 10° WSW visible
04 Oct 5.5 04:27:01 10° NE 04:30:28 18° E 04:33:53 10° SE visible
04 Oct 3.2 06:04:49 10° N 06:09:41 48° WNW 06:14:33 10° SW visible
05 Oct 3.1 05:27:44 10° NNE 05:32:49 74° ESE 05:37:53 10° S visible
06 Oct 4.7 04:51:14 10° NNE 04:55:45 32° E 05:00:15 10° SSE visible
06 Oct 3.9 06:30:20 10° N 06:34:38 28° WNW 06:38:54 10° SW visible
07 Oct 5.8 04:15:55 10° ENE 04:18:29 14° E 04:21:01 10° ESE visible
07 Oct 2.9 05:52:51 10° N 05:57:53 63° WNW 06:02:53 10° SSW visible
08 Oct 3.6 05:15:56 10° NNE 05:20:57 57° E 05:25:55 10° S visible
09 Oct 5.1 04:39:40 10° NE 04:43:49 25° E 04:47:55 10° SSE visible
09 Oct 3.6 06:18:14 10° N 06:22:51 36° WNW 06:27:26 10° SW visible
10 Oct 6.0 04:05:54 10° E 04:06:28 10° E 04:07:03 10° E visible
10 Oct 2.9 05:40:57 10° N 05:46:03 81° WNW 05:51:07 10° SSW visible
